TimeCST,TemperatureF,Dew PointF,Humidity,Sea Level PressureIn,VisibilityMPH,Wind Direction,Wind SpeedMPH,Gust SpeedMPH,PrecipitationIn,Events,Conditions,WindDirDegrees,DateUTC
12:53 AM,10.9,-2.0,56,30.04,10.0,SSE,10.4,-,N/A,,Mostly Cloudy,160,2012-01-20 06:53:00
1:53 AM,10.9,-0.9,59,30.01,10.0,SE,9.2,-,N/A,,Overcast,140,2012-01-20 07:53:00
2:53 AM,10.9,-0.9,59,29.97,10.0,SE,11.5,-,N/A,,Partly Cloudy,140,2012-01-20 08:53:00
3:53 AM,10.9,-0.9,59,29.97,10.0,SSE,10.4,-,N/A,,Mostly Cloudy,160,2012-01-20 09:53:00
4:53 AM,10.9,-0.9,59,29.91,10.0,SE,15.0,-,N/A,,Mostly Cloudy,140,2012-01-20 10:53:00
5:53 AM,10.9,-0.9,59,29.93,10.0,SSE,11.5,-,N/A,,Clear,160,2012-01-20 11:53:00
6:53 AM,10.9,-0.0,61,29.91,10.0,SSE,12.7,-,N/A,,Partly Cloudy,160,2012-01-20 12:53:00
7:53 AM,10.9,-0.0,61,29.94,10.0,South,5.8,-,N/A,,Clear,170,2012-01-20 13:53:00
8:53 AM,10.9,1.0,64,29.97,10.0,ESE,3.5,-,N/A,,Clear,120,2012-01-20 14:53:00
9:53 AM,12.9,1.0,59,29.99,10.0,Calm,Calm,-,N/A,,Clear,0,2012-01-20 15:53:00
10:53 AM,16.0,1.9,54,29.99,10.0,Variable,3.5,-,N/A,,Clear,0,2012-01-20 16:53:00
11:53 AM,19.9,3.9,50,29.98,10.0,Variable,4.6,-,N/A,,Clear,0,2012-01-20 17:53:00
12:53 PM,21.0,3.9,48,29.99,10.0,North,5.8,-,N/A,,Clear,10,2012-01-20 18:53:00
1:53 PM,25.0,5.0,43,30.00,10.0,North,12.7,-,N/A,,Clear,360,2012-01-20 19:53:00
2:53 PM,27.0,5.0,39,30.03,10.0,North,18.4,26.5,N/A,,Clear,360,2012-01-20 20:53:00
3:53 PM,26.1,3.9,39,30.06,10.0,North,17.3,-,N/A,,Clear,10,2012-01-20 21:53:00
4:53 PM,24.1,5.0,44,30.12,10.0,North,20.7,-,N/A,,Scattered Clouds,10,2012-01-20 22:53:00
5:53 PM,19.9,5.0,52,30.17,10.0,North,17.3,25.3,N/A,,Clear,10,2012-01-20 23:53:00
6:53 PM,16.0,3.9,59,30.21,10.0,North,15.0,-,N/A,,Clear,10,2012-01-21 00:53:00
7:53 PM,12.9,3.0,65,30.24,10.0,North,13.8,-,N/A,,Clear,10,2012-01-21 01:53:00
8:53 PM,10.9,3.0,70,30.28,10.0,North,10.4,-,N/A,,Clear,360,2012-01-21 02:53:00
9:43 PM,12.2,3.2,67,30.18,10.0,North,6.9,-,N/A,,Mostly Cloudy,360,2012-01-21 03:43:00
9:53 PM,12.0,3.0,67,30.30,10.0,North,9.2,-,N/A,,Overcast,360,2012-01-21 03:53:00
10:53 PM,10.9,1.9,67,30.30,10.0,North,8.1,-,N/A,,Mostly Cloudy,10,2012-01-21 04:53:00
11:30 PM,8.6,1.4,73,30.19,10.0,NNE,5.8,-,N/A,,Scattered Clouds,20,2012-01-21 05:30:00
11:53 PM,9.0,1.9,73,30.30,10.0,North,5.8,-,N/A,,Mostly Cloudy,10,2012-01-21 05:53:00